Location: Little Baddow
(51.7333°N, 0.5667°E)
Time: 10:55:36
(UTC+00:00)

CENTAUR R/B - Pass Details

Date: 08 November 2025
Orbit: 633 x 1547 km, 63.4° (Epoch: 09 December)

Event Time Altitude Azimuth Distance (km) Brightness Sun altitude
Exits shadow 05:39:08 10° 315° (NW) 3,132 4.7 -13.4°
Reaches altitude 10° 05:39:08 10° 315° (NW) 3,132 4.7 -13.4°
Maximum altitude 05:46:50 61° 35° (NE) 1,536 3.6 -12.2°
Drops below altitude 10° 05:55:56 10° 115° (ESE) 3,670 7.0 -10.8°
Sets 05:59:09 0° 119° (ESE) 4,691 7.8 -10.3°
